Year,Month,Day,Hour,Minute,Value (Times are PST for insolation in W/m^2)
2016,01,16,00,00,0.00
2016,01,16,00,01,0.00
2016,01,16,00,02,0.00
2016,01,16,00,03,0.00
2016,01,16,00,04,0.00
2016,01,16,00,05,0.00
2016,01,16,00,06,0.00
2016,01,16,00,07,0.00
2016,01,16,00,08,0.00
2016,01,16,00,09,0.00
2016,01,16,00,10,0.00
2016,01,16,00,11,0.00
2016,01,16,00,12,0.00
2016,01,16,00,13,0.00
2016,01,16,00,14,0.00
2016,01,16,00,15,0.00
2016,01,16,00,16,0.00
2016,01,16,00,17,0.00
2016,01,16,00,18,0.00
2016,01,16,00,19,0.00
2016,01,16,00,20,0.00
2016,01,16,00,21,0.00
2016,01,16,00,22,0.00
2016,01,16,00,23,0.00
2016,01,16,00,24,0.00
2016,01,16,00,25,0.00
2016,01,16,00,26,0.00
2016,01,16,00,27,0.00
2016,01,16,00,28,0.00
2016,01,16,00,29,0.00
2016,01,16,00,30,0.00
2016,01,16,00,31,0.00
2016,01,16,00,32,0.00
2016,01,16,00,33,0.00
2016,01,16,00,34,0.00
2016,01,16,00,35,0.00
2016,01,16,00,36,0.00
2016,01,16,00,37,0.00
2016,01,16,00,38,0.00
2016,01,16,00,39,0.00
2016,01,16,00,40,0.00
2016,01,16,00,41,0.00
2016,01,16,00,42,0.00
2016,01,16,00,43,0.00
2016,01,16,00,44,0.00
2016,01,16,00,45,0.00
2016,01,16,00,46,0.00
2016,01,16,00,47,0.00
2016,01,16,00,48,0.00
2016,01,16,00,49,0.00
2016,01,16,00,50,0.00
2016,01,16,00,51,0.00
2016,01,16,00,52,0.00
2016,01,16,00,53,0.00
2016,01,16,00,54,0.00
2016,01,16,00,55,0.00
2016,01,16,00,56,0.00
2016,01,16,00,57,0.00
2016,01,16,00,58,0.00
2016,01,16,00,59,0.00
2016,01,16,01,00,0.00
2016,01,16,01,01,0.00
2016,01,16,01,02,0.00
2016,01,16,01,03,0.00
2016,01,16,01,04,0.00
2016,01,16,01,05,0.00
2016,01,16,01,06,0.00
2016,01,16,01,07,0.00
2016,01,16,01,08,0.00
2016,01,16,01,09,0.00
2016,01,16,01,10,0.00
2016,01,16,01,11,0.00
2016,01,16,01,12,0.00
2016,01,16,01,13,0.00
2016,01,16,01,14,0.00
2016,01,16,01,15,0.00
2016,01,16,01,16,0.00
2016,01,16,01,17,0.00
2016,01,16,01,18,0.00
2016,01,16,01,19,0.00
2016,01,16,01,20,0.00
2016,01,16,01,21,0.00
2016,01,16,01,22,0.00
2016,01,16,01,23,0.00
2016,01,16,01,24,0.00
2016,01,16,01,25,0.00
2016,01,16,01,26,0.00
2016,01,16,01,27,0.00
2016,01,16,01,28,0.00
2016,01,16,01,29,0.00
2016,01,16,01,30,0.00
2016,01,16,01,31,0.00
2016,01,16,01,32,0.00
2016,01,16,01,33,0.00
2016,01,16,01,34,0.00
2016,01,16,01,35,0.00
2016,01,16,01,36,0.00
2016,01,16,01,37,0.00
2016,01,16,01,38,0.00
2016,01,16,01,39,0.00
2016,01,16,01,40,0.00
2016,01,16,01,41,0.00
2016,01,16,01,42,0.00
2016,01,16,01,43,0.00
2016,01,16,01,44,0.00
2016,01,16,01,45,0.00
2016,01,16,01,46,0.00
2016,01,16,01,47,0.00
2016,01,16,01,48,0.00
2016,01,16,01,49,0.00
2016,01,16,01,50,0.00
2016,01,16,01,51,0.00
2016,01,16,01,52,0.00
2016,01,16,01,53,0.00
2016,01,16,01,54,0.00
2016,01,16,01,55,0.00
2016,01,16,01,56,0.00
2016,01,16,01,57,0.00
2016,01,16,01,58,0.00
2016,01,16,01,59,0.00
2016,01,16,02,00,0.00
2016,01,16,02,01,0.00
2016,01,16,02,02,0.00
2016,01,16,02,03,0.00
2016,01,16,02,04,0.00
2016,01,16,02,05,0.00
2016,01,16,02,06,0.00
2016,01,16,02,07,0.00
2016,01,16,02,08,0.00
2016,01,16,02,09,0.00
2016,01,16,02,10,0.00
2016,01,16,02,11,0.00
2016,01,16,02,12,0.00
2016,01,16,02,13,0.00
2016,01,16,02,14,0.00
2016,01,16,02,15,0.00
2016,01,16,02,16,0.00
2016,01,16,02,17,0.00
2016,01,16,02,18,0.00
2016,01,16,02,19,0.00
2016,01,16,02,20,0.00
2016,01,16,02,21,0.00
2016,01,16,02,22,0.00
2016,01,16,02,23,0.00
2016,01,16,02,24,0.00
2016,01,16,02,25,0.00
2016,01,16,02,26,0.00
2016,01,16,02,27,0.00
2016,01,16,02,28,0.00
2016,01,16,02,29,0.00
2016,01,16,02,30,0.00
2016,01,16,02,31,0.00
2016,01,16,02,32,0.00
2016,01,16,02,33,0.00
2016,01,16,02,34,0.00
2016,01,16,02,35,0.00
2016,01,16,02,36,0.00
2016,01,16,02,37,0.00
2016,01,16,02,38,0.00
2016,01,16,02,39,0.00
2016,01,16,02,40,0.00
2016,01,16,02,41,0.00
2016,01,16,02,42,0.00
2016,01,16,02,43,0.00
2016,01,16,02,44,0.00
2016,01,16,02,45,0.00
2016,01,16,02,46,0.00
2016,01,16,02,47,0.00
2016,01,16,02,48,0.00
2016,01,16,02,49,0.00
2016,01,16,02,50,0.00
2016,01,16,02,51,0.00
2016,01,16,02,52,0.00
2016,01,16,02,53,0.00
2016,01,16,02,54,0.00
2016,01,16,02,55,0.00
2016,01,16,02,56,0.00
2016,01,16,02,57,0.00
2016,01,16,02,58,0.00
2016,01,16,02,59,0.00
2016,01,16,03,00,0.00
2016,01,16,03,01,0.00
2016,01,16,03,02,0.00
2016,01,16,03,03,0.00
2016,01,16,03,04,0.00
2016,01,16,03,05,0.00
2016,01,16,03,06,0.00
2016,01,16,03,07,0.00
2016,01,16,03,08,0.00
2016,01,16,03,09,0.00
2016,01,16,03,10,0.00
2016,01,16,03,11,0.00
2016,01,16,03,12,0.00
2016,01,16,03,13,0.00
2016,01,16,03,14,0.00
2016,01,16,03,15,0.00
2016,01,16,03,16,0.00
2016,01,16,03,17,0.00
2016,01,16,03,18,0.00
2016,01,16,03,19,0.00
2016,01,16,03,20,0.00
2016,01,16,03,21,0.00
2016,01,16,03,22,0.00
2016,01,16,03,23,0.00
2016,01,16,03,24,0.00
2016,01,16,03,25,0.00
2016,01,16,03,26,0.00
2016,01,16,03,27,0.00
2016,01,16,03,28,0.00
2016,01,16,03,29,0.00
2016,01,16,03,30,0.00
2016,01,16,03,31,0.00
2016,01,16,03,32,0.00
2016,01,16,03,33,0.00
2016,01,16,03,34,0.00
2016,01,16,03,35,0.00
2016,01,16,03,36,0.00
2016,01,16,03,37,0.00
2016,01,16,03,38,0.00
2016,01,16,03,39,0.00
2016,01,16,03,40,0.00
2016,01,16,03,41,0.00
2016,01,16,03,42,0.00
2016,01,16,03,43,0.00
2016,01,16,03,44,0.00
2016,01,16,03,45,0.00
2016,01,16,03,46,0.00
2016,01,16,03,47,0.00
2016,01,16,03,48,0.00
2016,01,16,03,49,0.00
2016,01,16,03,50,0.00
2016,01,16,03,51,0.00
2016,01,16,03,52,0.00
2016,01,16,03,53,0.00
2016,01,16,03,54,0.00
2016,01,16,03,55,0.00
2016,01,16,03,56,0.00
2016,01,16,03,57,0.00
2016,01,16,03,58,0.00
2016,01,16,03,59,0.00
2016,01,16,04,00,0.00
2016,01,16,04,01,0.00
2016,01,16,04,02,0.00
2016,01,16,04,03,0.00
2016,01,16,04,04,0.00
2016,01,16,04,05,0.00
2016,01,16,04,06,0.00
2016,01,16,04,07,0.00
2016,01,16,04,08,0.00
2016,01,16,04,09,0.00
2016,01,16,04,10,0.00
2016,01,16,04,11,0.00
2016,01,16,04,12,0.00
2016,01,16,04,13,0.00
2016,01,16,04,14,0.00
2016,01,16,04,15,0.00
2016,01,16,04,16,0.00
2016,01,16,04,17,0.00
2016,01,16,04,18,0.00
2016,01,16,04,19,0.00
2016,01,16,04,20,0.00
2016,01,16,04,21,0.00
2016,01,16,04,22,0.00
2016,01,16,04,23,0.00
2016,01,16,04,24,0.00
2016,01,16,04,25,0.00
2016,01,16,04,26,0.00
2016,01,16,04,27,0.00
2016,01,16,04,28,0.00
2016,01,16,04,29,0.00
2016,01,16,04,30,0.00
2016,01,16,04,31,0.00
2016,01,16,04,32,0.00
2016,01,16,04,33,0.00
2016,01,16,04,34,0.00
2016,01,16,04,35,0.00
2016,01,16,04,36,0.00
2016,01,16,04,37,0.00
2016,01,16,04,38,0.00
2016,01,16,04,39,0.00
2016,01,16,04,40,0.00
2016,01,16,04,41,0.00
2016,01,16,04,42,0.00
2016,01,16,04,43,0.00
2016,01,16,04,44,0.00
2016,01,16,04,45,0.00
2016,01,16,04,46,0.00
2016,01,16,04,47,0.00
2016,01,16,04,48,0.00
2016,01,16,04,49,0.00
2016,01,16,04,50,0.00
2016,01,16,04,51,0.00
2016,01,16,04,52,0.00
2016,01,16,04,53,0.00
2016,01,16,04,54,0.00
2016,01,16,04,55,0.00
2016,01,16,04,56,0.00
2016,01,16,04,57,0.00
2016,01,16,04,58,0.00
2016,01,16,04,59,0.00
2016,01,16,05,00,0.00
2016,01,16,05,01,0.00
2016,01,16,05,02,0.00
2016,01,16,05,03,0.00
2016,01,16,05,04,0.00
2016,01,16,05,05,0.00
2016,01,16,05,06,0.00
2016,01,16,05,07,0.00
2016,01,16,05,08,0.00
2016,01,16,05,09,0.00
2016,01,16,05,10,0.00
2016,01,16,05,11,0.00
2016,01,16,05,12,0.00
2016,01,16,05,13,0.00
2016,01,16,05,14,0.00
2016,01,16,05,15,0.00
2016,01,16,05,16,0.00
2016,01,16,05,17,0.00
2016,01,16,05,18,0.00
2016,01,16,05,19,0.00
2016,01,16,05,20,0.00
2016,01,16,05,21,0.00
2016,01,16,05,22,0.00
2016,01,16,05,23,0.00
2016,01,16,05,24,0.00
2016,01,16,05,25,0.00
2016,01,16,05,26,0.00
2016,01,16,05,27,0.00
2016,01,16,05,28,0.00
2016,01,16,05,29,0.00
2016,01,16,05,30,0.00
2016,01,16,05,31,0.00
2016,01,16,05,32,0.00
2016,01,16,05,33,0.00
2016,01,16,05,34,0.00
2016,01,16,05,35,0.00
2016,01,16,05,36,0.00
2016,01,16,05,37,0.00
2016,01,16,05,38,0.00
2016,01,16,05,39,0.00
2016,01,16,05,40,0.00
2016,01,16,05,41,0.00
2016,01,16,05,42,0.00
2016,01,16,05,43,0.00
2016,01,16,05,44,0.00
2016,01,16,05,45,0.00
2016,01,16,05,46,0.00
2016,01,16,05,47,0.00
2016,01,16,05,48,0.00
2016,01,16,05,49,0.00
2016,01,16,05,50,0.00
2016,01,16,05,51,0.00
2016,01,16,05,52,0.00
2016,01,16,05,53,0.00
2016,01,16,05,54,0.00
2016,01,16,05,55,0.00
2016,01,16,05,56,0.00
2016,01,16,05,57,0.00
2016,01,16,05,58,0.00
2016,01,16,05,59,0.00
2016,01,16,06,00,0.00
2016,01,16,06,01,0.00
2016,01,16,06,02,0.00
2016,01,16,06,03,0.00
2016,01,16,06,04,0.00
2016,01,16,06,05,0.00
2016,01,16,06,06,0.00
2016,01,16,06,07,0.00
2016,01,16,06,08,0.00
2016,01,16,06,09,0.00
2016,01,16,06,10,0.00
2016,01,16,06,11,0.00
2016,01,16,06,12,0.00
2016,01,16,06,13,0.00
2016,01,16,06,14,0.00
2016,01,16,06,15,0.00
2016,01,16,06,16,0.00
2016,01,16,06,17,0.00
2016,01,16,06,18,0.00
2016,01,16,06,19,0.00
2016,01,16,06,20,0.00
2016,01,16,06,21,0.00
2016,01,16,06,22,0.00
2016,01,16,06,23,0.00
2016,01,16,06,24,0.00
2016,01,16,06,25,0.00
2016,01,16,06,26,0.00
2016,01,16,06,27,0.00
2016,01,16,06,28,0.00
2016,01,16,06,29,0.00
2016,01,16,06,30,0.00
2016,01,16,06,31,0.00
2016,01,16,06,32,0.00
2016,01,16,06,33,0.00
2016,01,16,06,34,0.00
2016,01,16,06,35,0.00
2016,01,16,06,36,0.00
2016,01,16,06,37,0.00
2016,01,16,06,38,0.00
2016,01,16,06,39,0.00
2016,01,16,06,40,0.00
2016,01,16,06,41,0.00
2016,01,16,06,42,0.00
2016,01,16,06,43,0.00
2016,01,16,06,44,0.00
2016,01,16,06,45,0.00
2016,01,16,06,46,0.00
2016,01,16,06,47,0.00
2016,01,16,06,48,0.00
2016,01,16,06,49,0.00
2016,01,16,06,50,0.00
2016,01,16,06,51,0.00
2016,01,16,06,52,0.00
2016,01,16,06,53,0.00
2016,01,16,06,54,0.00
2016,01,16,06,55,0.00
2016,01,16,06,56,0.00
2016,01,16,06,57,0.00
2016,01,16,06,58,0.00
2016,01,16,06,59,0.00
2016,01,16,07,00,0.00
2016,01,16,07,01,0.00
2016,01,16,07,02,0.00
2016,01,16,07,03,0.00
2016,01,16,07,04,0.00
2016,01,16,07,05,0.00
2016,01,16,07,06,0.00
2016,01,16,07,07,0.00
2016,01,16,07,08,0.00
2016,01,16,07,09,0.00
2016,01,16,07,10,0.00
2016,01,16,07,11,0.00
2016,01,16,07,12,0.00
2016,01,16,07,13,0.00
2016,01,16,07,14,0.00
2016,01,16,07,15,0.00
2016,01,16,07,16,0.00
2016,01,16,07,17,0.00
2016,01,16,07,18,0.00
2016,01,16,07,19,0.00
2016,01,16,07,20,0.00
2016,01,16,07,21,0.00
2016,01,16,07,22,0.00
2016,01,16,07,23,0.00
2016,01,16,07,24,0.00
2016,01,16,07,25,0.00
2016,01,16,07,26,0.00
2016,01,16,07,27,0.00
2016,01,16,07,28,0.00
2016,01,16,07,29,0.00
2016,01,16,07,30,0.00
2016,01,16,07,31,0.00
2016,01,16,07,32,0.00
2016,01,16,07,33,0.00
2016,01,16,07,34,0.00
2016,01,16,07,35,0.00
2016,01,16,07,36,0.00
2016,01,16,07,37,0.00
2016,01,16,07,38,0.00
2016,01,16,07,39,0.00
2016,01,16,07,40,0.00
2016,01,16,07,41,0.00
2016,01,16,07,42,0.00
2016,01,16,07,43,0.00
2016,01,16,07,44,0.00
2016,01,16,07,45,0.00
2016,01,16,07,46,0.00
2016,01,16,07,47,0.00
2016,01,16,07,48,0.00
2016,01,16,07,49,0.00
2016,01,16,07,50,0.00
2016,01,16,07,51,0.00
2016,01,16,07,52,0.00
2016,01,16,07,53,0.00
2016,01,16,07,54,0.00
2016,01,16,07,55,0.00
2016,01,16,07,56,0.00
2016,01,16,07,57,0.00
2016,01,16,07,58,0.00
2016,01,16,07,59,0.00
2016,01,16,08,00,0.00
2016,01,16,08,01,0.00
2016,01,16,08,02,0.00
2016,01,16,08,03,0.00
2016,01,16,08,04,0.00
2016,01,16,08,05,0.00
2016,01,16,08,06,0.00
2016,01,16,08,07,0.00
2016,01,16,08,08,0.00
2016,01,16,08,09,0.00
2016,01,16,08,10,0.00
2016,01,16,08,11,0.00
2016,01,16,08,12,0.00
2016,01,16,08,13,0.00
2016,01,16,08,14,0.00
2016,01,16,08,15,0.00
2016,01,16,08,16,0.00
2016,01,16,08,17,0.00
2016,01,16,08,18,0.00
2016,01,16,08,19,0.00
2016,01,16,08,20,0.00
2016,01,16,08,21,0.00
2016,01,16,08,22,0.00
2016,01,16,08,23,0.00
2016,01,16,08,24,0.00
2016,01,16,08,25,0.00
2016,01,16,08,26,0.00
2016,01,16,08,27,0.00
2016,01,16,08,28,0.00
2016,01,16,08,29,0.00
2016,01,16,08,30,0.00
2016,01,16,08,31,0.00
2016,01,16,08,32,0.00
2016,01,16,08,33,0.00
2016,01,16,08,34,0.00
2016,01,16,08,35,0.00
2016,01,16,08,36,0.00
2016,01,16,08,37,0.00
2016,01,16,08,38,0.00
2016,01,16,08,39,4.50
2016,01,16,08,40,0.00
2016,01,16,08,41,1.40
2016,01,16,08,42,5.00
2016,01,16,08,43,5.00
2016,01,16,08,44,5.00
2016,01,16,08,45,6.60
2016,01,16,08,46,6.90
2016,01,16,08,47,5.30
2016,01,16,08,48,7.00
2016,01,16,08,49,7.00
2016,01,16,08,50,7.00
2016,01,16,08,51,7.00
2016,01,16,08,52,7.00
2016,01,16,08,53,7.00
2016,01,16,08,54,7.00
2016,01,16,08,55,7.00
2016,01,16,08,56,7.00
2016,01,16,08,57,7.00
2016,01,16,08,58,8.30
2016,01,16,08,59,9.00
2016,01,16,09,00,9.00
2016,01,16,09,01,9.30
2016,01,16,09,02,11.00
2016,01,16,09,03,11.00
2016,01,16,09,04,11.00
2016,01,16,09,05,11.00
2016,01,16,09,06,11.80
2016,01,16,09,07,13.80
2016,01,16,09,08,14.00
2016,01,16,09,09,14.00
2016,01,16,09,10,14.00
2016,01,16,09,11,14.00
2016,01,16,09,12,12.70
2016,01,16,09,13,12.00
2016,01,16,09,14,13.80
2016,01,16,09,15,13.70
2016,01,16,09,16,12.00
2016,01,16,09,17,12.00
2016,01,16,09,18,11.50
2016,01,16,09,19,11.00
2016,01,16,09,20,11.00
2016,01,16,09,21,9.30
2016,01,16,09,22,11.00
2016,01,16,09,23,11.30
2016,01,16,09,24,13.70
2016,01,16,09,25,14.90
2016,01,16,09,26,14.00
2016,01,16,09,27,14.00
2016,01,16,09,28,17.50
2016,01,16,09,29,15.70
2016,01,16,09,30,14.00
2016,01,16,09,31,13.20
2016,01,16,09,32,12.00
2016,01,16,09,33,13.30
2016,01,16,09,34,14.00
2016,01,16,09,35,14.00
2016,01,16,09,36,14.00
2016,01,16,09,37,14.00
2016,01,16,09,38,15.50
2016,01,16,09,39,18.50
2016,01,16,09,40,19.00
2016,01,16,09,41,18.20
2016,01,16,09,42,18.90
2016,01,16,09,43,23.00
2016,01,16,09,44,23.50
2016,01,16,09,45,26.10
2016,01,16,09,46,28.00
2016,01,16,09,47,26.70
2016,01,16,09,48,25.20
2016,01,16,09,49,21.70
2016,01,16,09,50,28.00
2016,01,16,09,51,29.40
2016,01,16,09,52,34.60
2016,01,16,09,53,36.00
2016,01,16,09,54,31.80
2016,01,16,09,55,28.50
2016,01,16,09,56,29.80
2016,01,16,09,57,28.00
2016,01,16,09,58,26.20
2016,01,16,09,59,19.90
2016,01,16,10,00,18.50
2016,01,16,10,01,20.20
2016,01,16,10,02,22.50
2016,01,16,10,03,24.80
2016,01,16,10,04,24.70
2016,01,16,10,05,23.50
2016,01,16,10,06,27.70
2016,01,16,10,07,32.50
2016,01,16,10,08,29.80
2016,01,16,10,09,28.00
2016,01,16,10,10,26.30
2016,01,16,10,11,31.30
2016,01,16,10,12,39.30
2016,01,16,10,13,37.90
2016,01,16,10,14,34.00
2016,01,16,10,15,34.20
2016,01,16,10,16,35.00
2016,01,16,10,17,33.20
2016,01,16,10,18,35.60
2016,01,16,10,19,40.20
2016,01,16,10,20,48.60
2016,01,16,10,21,55.00
2016,01,16,10,22,54.00
2016,01,16,10,23,53.20
2016,01,16,10,24,53.00
2016,01,16,10,25,39.10
2016,01,16,10,26,40.60
2016,01,16,10,27,42.00
2016,01,16,10,28,44.10
2016,01,16,10,29,40.20
2016,01,16,10,30,34.00
2016,01,16,10,31,33.00
2016,01,16,10,32,33.00
2016,01,16,10,33,32.70
2016,01,16,10,34,32.40
2016,01,16,10,35,34.00
2016,01,16,10,36,36.30
2016,01,16,10,37,40.80
2016,01,16,10,38,50.10
2016,01,16,10,39,52.70
2016,01,16,10,40,51.60
2016,01,16,10,41,54.20
2016,01,16,10,42,56.00
2016,01,16,10,43,50.40
2016,01,16,10,44,43.20
2016,01,16,10,45,34.00
2016,01,16,10,46,29.40
2016,01,16,10,47,26.00
2016,01,16,10,48,26.00
2016,01,16,10,49,27.00
2016,01,16,10,50,29.20
2016,01,16,10,51,26.20
2016,01,16,10,52,25.90
2016,01,16,10,53,33.80
2016,01,16,10,54,39.20
2016,01,16,10,55,40.00
2016,01,16,10,56,36.40
2016,01,16,10,57,31.10
2016,01,16,10,58,30.00
2016,01,16,10,59,26.40
2016,01,16,11,00,27.60
2016,01,16,11,01,25.30
2016,01,16,11,02,26.80
2016,01,16,11,03,28.00
2016,01,16,11,04,28.00
2016,01,16,11,05,26.50
2016,01,16,11,06,26.00
2016,01,16,11,07,24.70
2016,01,16,11,08,23.00
2016,01,16,11,09,22.20
2016,01,16,11,10,19.40
2016,01,16,11,11,18.00
2016,01,16,11,12,20.40
2016,01,16,11,13,24.90
2016,01,16,11,14,33.00
2016,01,16,11,15,34.80
2016,01,16,11,16,43.40
2016,01,16,11,17,52.50
2016,01,16,11,18,60.30
2016,01,16,11,19,67.60
2016,01,16,11,20,69.90
2016,01,16,11,21,63.00
2016,01,16,11,22,64.50
2016,01,16,11,23,71.70
2016,01,16,11,24,76.00
2016,01,16,11,25,76.60
2016,01,16,11,26,69.40
2016,01,16,11,27,69.70
2016,01,16,11,28,69.70
2016,01,16,11,29,72.20
2016,01,16,11,30,63.60
2016,01,16,11,31,58.00
2016,01,16,11,32,53.50
2016,01,16,11,33,53.30
2016,01,16,11,34,59.40
2016,01,16,11,35,69.00
2016,01,16,11,36,68.40
2016,01,16,11,37,69.00
2016,01,16,11,38,81.30
2016,01,16,11,39,102.20
2016,01,16,11,40,110.50
2016,01,16,11,41,95.90
2016,01,16,11,42,70.30
2016,01,16,11,43,60.50
2016,01,16,11,44,62.00
2016,01,16,11,45,60.00
2016,01,16,11,46,58.00
2016,01,16,11,47,58.00
2016,01,16,11,48,53.70
2016,01,16,11,49,47.00
2016,01,16,11,50,53.20
2016,01,16,11,51,61.60
2016,01,16,11,52,78.50
2016,01,16,11,53,76.20
2016,01,16,11,54,81.10
2016,01,16,11,55,92.00
2016,01,16,11,56,86.30
2016,01,16,11,57,87.40
2016,01,16,11,58,87.60
2016,01,16,11,59,80.70
2016,01,16,12,00,68.80
2016,01,16,12,01,82.90
2016,01,16,12,02,96.90
2016,01,16,12,03,108.50
2016,01,16,12,04,123.80
2016,01,16,12,05,139.00
2016,01,16,12,06,140.00
2016,01,16,12,07,138.40
2016,01,16,12,08,124.10
2016,01,16,12,09,105.70
2016,01,16,12,10,94.40
2016,01,16,12,11,68.70
2016,01,16,12,12,57.60
2016,01,16,12,13,51.40
2016,01,16,12,14,51.60
2016,01,16,12,15,58.30
2016,01,16,12,16,48.20
2016,01,16,12,17,44.40
2016,01,16,12,18,48.10
2016,01,16,12,19,62.60
2016,01,16,12,20,86.50
2016,01,16,12,21,96.10
2016,01,16,12,22,122.00
2016,01,16,12,23,175.70
2016,01,16,12,24,234.40
2016,01,16,12,25,207.00
2016,01,16,12,26,167.90
2016,01,16,12,27,152.80
2016,01,16,12,28,148.60
2016,01,16,12,29,136.10
2016,01,16,12,30,97.20
2016,01,16,12,31,90.40
2016,01,16,12,32,91.20
2016,01,16,12,33,86.80
2016,01,16,12,34,78.70
2016,01,16,12,35,69.40
2016,01,16,12,36,76.60
2016,01,16,12,37,72.80
2016,01,16,12,38,86.90
2016,01,16,12,39,97.00
2016,01,16,12,40,78.00
2016,01,16,12,41,86.20
2016,01,16,12,42,91.00
2016,01,16,12,43,104.50
2016,01,16,12,44,105.60
2016,01,16,12,45,102.30
2016,01,16,12,46,146.20
2016,01,16,12,47,142.10
2016,01,16,12,48,135.70
2016,01,16,12,49,129.30
2016,01,16,12,50,167.70
2016,01,16,12,51,182.30
2016,01,16,12,52,180.50
2016,01,16,12,53,171.20
2016,01,16,12,54,198.00
2016,01,16,12,55,247.20
2016,01,16,12,56,267.50
2016,01,16,12,57,236.50
2016,01,16,12,58,233.50
2016,01,16,12,59,229.00
2016,01,16,13,00,272.00
2016,01,16,13,01,392.30
2016,01,16,13,02,348.00
2016,01,16,13,03,320.00
2016,01,16,13,04,401.20
2016,01,16,13,05,421.10
2016,01,16,13,06,267.50
2016,01,16,13,07,355.00
2016,01,16,13,08,293.20
2016,01,16,13,09,194.50
2016,01,16,13,10,223.10
2016,01,16,13,11,248.10
2016,01,16,13,12,213.50
2016,01,16,13,13,223.00
2016,01,16,13,14,306.90
2016,01,16,13,15,522.00
2016,01,16,13,16,549.50
2016,01,16,13,17,584.00
2016,01,16,13,18,535.20
2016,01,16,13,19,443.10
2016,01,16,13,20,431.00
2016,01,16,13,21,441.00
2016,01,16,13,22,488.40
2016,01,16,13,23,517.00
2016,01,16,13,24,361.80
2016,01,16,13,25,277.50
2016,01,16,13,26,258.60
2016,01,16,13,27,198.10
2016,01,16,13,28,220.90
2016,01,16,13,29,198.20
2016,01,16,13,30,222.80
2016,01,16,13,31,221.10
2016,01,16,13,32,221.10
2016,01,16,13,33,229.50
2016,01,16,13,34,224.80
2016,01,16,13,35,216.20
2016,01,16,13,36,227.10
2016,01,16,13,37,211.50
2016,01,16,13,38,188.20
2016,01,16,13,39,177.20
2016,01,16,13,40,172.60
2016,01,16,13,41,175.70
2016,01,16,13,42,174.00
2016,01,16,13,43,175.50
2016,01,16,13,44,178.00
2016,01,16,13,45,178.00
2016,01,16,13,46,176.50
2016,01,16,13,47,171.50
2016,01,16,13,48,165.80
2016,01,16,13,49,170.00
2016,01,16,13,50,166.20
2016,01,16,13,51,166.00
2016,01,16,13,52,171.50
2016,01,16,13,53,167.20
2016,01,16,13,54,150.70
2016,01,16,13,55,138.00
2016,01,16,13,56,144.60
2016,01,16,13,57,146.80
2016,01,16,13,58,144.90
2016,01,16,13,59,134.30
2016,01,16,14,00,127.70
2016,01,16,14,01,129.90
2016,01,16,14,02,138.60
2016,01,16,14,03,151.30
2016,01,16,14,04,161.20
2016,01,16,14,05,163.00
2016,01,16,14,06,168.20
2016,01,16,14,07,171.80
2016,01,16,14,08,177.40
2016,01,16,14,09,179.20
2016,01,16,14,10,182.20
2016,01,16,14,11,187.50
2016,01,16,14,12,194.70
2016,01,16,14,13,204.10
2016,01,16,14,14,208.50
2016,01,16,14,15,200.90
2016,01,16,14,16,189.30
2016,01,16,14,17,184.50
2016,01,16,14,18,183.80
2016,01,16,14,19,185.50
2016,01,16,14,20,187.20
2016,01,16,14,21,186.50
2016,01,16,14,22,189.60
2016,01,16,14,23,193.40
2016,01,16,14,24,205.00
2016,01,16,14,25,218.50
2016,01,16,14,26,228.00
2016,01,16,14,27,229.00
2016,01,16,14,28,231.30
2016,01,16,14,29,235.60
2016,01,16,14,30,244.10
2016,01,16,14,31,250.70
2016,01,16,14,32,242.90
2016,01,16,14,33,220.10
2016,01,16,14,34,201.10
2016,01,16,14,35,195.40
2016,01,16,14,36,193.20
2016,01,16,14,37,193.80
2016,01,16,14,38,185.80
2016,01,16,14,39,186.10
2016,01,16,14,40,186.40
2016,01,16,14,41,185.60
2016,01,16,14,42,207.20
2016,01,16,14,43,176.50
2016,01,16,14,44,161.00
2016,01,16,14,45,154.40
2016,01,16,14,46,152.20
2016,01,16,14,47,149.40
2016,01,16,14,48,146.70
2016,01,16,14,49,146.00
2016,01,16,14,50,150.40
2016,01,16,14,51,221.60
2016,01,16,14,52,181.40
2016,01,16,14,53,151.00
2016,01,16,14,54,149.60
2016,01,16,14,55,143.70
2016,01,16,14,56,138.00
2016,01,16,14,57,132.50
2016,01,16,14,58,129.30
2016,01,16,14,59,125.00
2016,01,16,15,00,124.20
2016,01,16,15,01,122.00
2016,01,16,15,02,121.00
2016,01,16,15,03,121.00
2016,01,16,15,04,122.70
2016,01,16,15,05,130.80
2016,01,16,15,06,138.00
2016,01,16,15,07,140.20
2016,01,16,15,08,136.40
2016,01,16,15,09,132.70
2016,01,16,15,10,133.50
2016,01,16,15,11,141.50
2016,01,16,15,12,150.30
2016,01,16,15,13,142.70
2016,01,16,15,14,130.50
2016,01,16,15,15,124.00
2016,01,16,15,16,125.50
2016,01,16,15,17,121.70
2016,01,16,15,18,113.80
2016,01,16,15,19,111.50
2016,01,16,15,20,100.10
2016,01,16,15,21,91.50
2016,01,16,15,22,80.80
2016,01,16,15,23,72.10
2016,01,16,15,24,64.80
2016,01,16,15,25,56.50
2016,01,16,15,26,49.30
2016,01,16,15,27,51.00
2016,01,16,15,28,53.00
2016,01,16,15,29,57.00
2016,01,16,15,30,58.00
2016,01,16,15,31,59.50
2016,01,16,15,32,58.10
2016,01,16,15,33,56.00
2016,01,16,15,34,54.60
2016,01,16,15,35,49.00
2016,01,16,15,36,46.00
2016,01,16,15,37,46.60
2016,01,16,15,38,46.20
2016,01,16,15,39,46.00
2016,01,16,15,40,42.00
2016,01,16,15,41,42.50
2016,01,16,15,42,44.00
2016,01,16,15,43,40.50
2016,01,16,15,44,37.00
2016,01,16,15,45,35.50
2016,01,16,15,46,33.30
2016,01,16,15,47,29.50
2016,01,16,15,48,24.50
2016,01,16,15,49,22.20
2016,01,16,15,50,19.50
2016,01,16,15,51,18.00
2016,01,16,15,52,21.80
2016,01,16,15,53,24.70
2016,01,16,15,54,20.60
2016,01,16,15,55,17.50
2016,01,16,15,56,16.00
2016,01,16,15,57,15.00
2016,01,16,15,58,12.70
2016,01,16,15,59,12.00
2016,01,16,16,00,11.10
2016,01,16,16,01,11.00
2016,01,16,16,02,11.20
2016,01,16,16,03,12.00
2016,01,16,16,04,11.50
2016,01,16,16,05,9.80
2016,01,16,16,06,9.00
2016,01,16,16,07,10.80
2016,01,16,16,08,11.00
2016,01,16,16,09,11.00
2016,01,16,16,10,10.20
2016,01,16,16,11,9.00
2016,01,16,16,12,9.00
2016,01,16,16,13,9.00
2016,01,16,16,14,9.00
2016,01,16,16,15,9.00
2016,01,16,16,16,9.00
2016,01,16,16,17,9.80
2016,01,16,16,18,11.00
2016,01,16,16,19,9.70
2016,01,16,16,20,9.00
2016,01,16,16,21,9.00
2016,01,16,16,22,9.00
2016,01,16,16,23,8.50
2016,01,16,16,24,7.00
2016,01,16,16,25,8.00
2016,01,16,16,26,9.00
2016,01,16,16,27,9.00
2016,01,16,16,28,9.00
2016,01,16,16,29,8.80
2016,01,16,16,30,6.50
2016,01,16,16,31,5.80
2016,01,16,16,32,7.00
2016,01,16,16,33,5.80
2016,01,16,16,34,5.00
2016,01,16,16,35,0.70
2016,01,16,16,36,0.00
2016,01,16,16,37,0.00
2016,01,16,16,38,0.00
2016,01,16,16,39,0.00
2016,01,16,16,40,0.00
2016,01,16,16,41,0.00
2016,01,16,16,42,0.00
2016,01,16,16,43,0.00
2016,01,16,16,44,0.00
2016,01,16,16,45,0.00
2016,01,16,16,46,0.00
2016,01,16,16,47,0.00
2016,01,16,16,48,0.00
2016,01,16,16,49,0.00
2016,01,16,16,50,0.00
2016,01,16,16,51,0.00
2016,01,16,16,52,0.00
2016,01,16,16,53,0.00
2016,01,16,16,54,0.00
2016,01,16,16,55,0.00
2016,01,16,16,56,0.00
2016,01,16,16,57,0.00
2016,01,16,16,58,0.00
2016,01,16,16,59,0.00
2016,01,16,17,00,0.00
2016,01,16,17,01,0.00
2016,01,16,17,02,0.00
2016,01,16,17,03,0.00
2016,01,16,17,04,0.00
2016,01,16,17,05,0.00
2016,01,16,17,06,0.00
2016,01,16,17,07,0.00
2016,01,16,17,08,0.00
2016,01,16,17,09,0.00
2016,01,16,17,10,0.00
2016,01,16,17,11,0.00
2016,01,16,17,12,0.00
2016,01,16,17,13,0.00
2016,01,16,17,14,0.00
2016,01,16,17,15,0.00
2016,01,16,17,16,0.00
2016,01,16,17,17,0.00
2016,01,16,17,18,0.00
2016,01,16,17,19,0.00
2016,01,16,17,20,0.00
2016,01,16,17,21,0.00
2016,01,16,17,22,0.00
2016,01,16,17,23,0.00
2016,01,16,17,24,0.00
2016,01,16,17,25,0.00
2016,01,16,17,26,0.00
2016,01,16,17,27,0.00
2016,01,16,17,28,0.00
2016,01,16,17,29,0.00
2016,01,16,17,30,0.00
2016,01,16,17,31,0.00
2016,01,16,17,32,0.00
2016,01,16,17,33,0.00
2016,01,16,17,34,0.00
2016,01,16,17,35,0.00
2016,01,16,17,36,0.00
2016,01,16,17,37,0.00
2016,01,16,17,38,0.00
2016,01,16,17,39,0.00